STARLINK-1365 (45590 NORAD) Tracking and Keplerian Element Data

This shows tracking and keplerian element data for the satellite.

Feedback or suggestion? Click here.




ElementValue
Catalog45590
NameSTARLINK-1365
Epoch Orbit180
Epoch Day189.91668981
Epoch Year2020
RAAN42.6238
Inclination53.0107
Eccentricity0.0001329
Argument of Perigee103.2009
Mean Anonmoly258.8374
Mean Motion15.05563278
Decay Rate-8.13E-06
L11 45590U 20025BM 20189.91668981 -.00000813 00000-0 -36655-4 0 9993
L22 45590 53.0107 42.6238 0001329 103.2009 258.8374 15.05563278 1804

Live tracking and technical data element details for STARLINK-1365 (NORAD 45590). STARLINK-1365 can be tracked NOW for your location showing map with azimuth and elevation plus other details from your city location.

Track the satellite on the map from your city or location and see movement details for azimuth, elevation, latitude, longitude, range, height, and movement on the map or in text.







IsCatalogInMostPopularTable: catalog: 45590, numindb: 62
Update: records affected: 1



GetName: 45590 STARLINK-1365

Hit Count: updated at: Thu, 09 Jul 2020 01:43:10 GMT